| time (UTC) | temp C | wind direction | speed KPH | gust KPH | rain 1hr cm | rain 24hr cm | rain mn cm | humidity % | barometer mb |
| 20260505234618 | 11 | 173 | 0.0 | 3.2 | 0.00 | 0.28 | 0.03 | 94 | 1008.0 |
| 20260505234225 | 12 | 194 | 1.6 | 4.8 | 0.00 | 0.28 | 0.00 | 94 | 1008.0 |
| 20260505233221 | 11 | 214 | 1.6 | 4.8 | 0.00 | 0.28 | 0.00 | 94 | 1008.1 |
| 20260505233009 | 11 | 213 | 1.6 | 4.8 | 0.00 | 0.28 | 0.03 | 94 | 1008.2 |
| 20260505232212 | 11 | 167 | 1.6 | 3.2 | 0.00 | 0.28 | 0.00 | 94 | 1008.1 |
| 20260505231510 | 11 | 205 | 0.0 | 3.2 | 0.00 | 0.28 | 0.03 | 94 | 1008.2 |
| 20260505231215 | 11 | 182 | 1.6 | 6.4 | 0.00 | 0.28 | 0.00 | 94 | 1008.1 |
| 20260505230216 | 12 | 180 | 1.6 | 6.4 | 0.00 | 0.28 | 0.00 | 94 | 1008.1 |
| 20260505230109 | 11 | 184 | 0.0 | 4.8 | 0.00 | 0.28 | 0.03 | 94 | 1008.2 |
| 20260505225218 | 12 | 103 | 1.6 | 3.2 | 0.03 | 0.28 | 0.00 | 94 | 1008.2 |
| 20260505224600 | 11 | 232 | 0.0 | 3.2 | 0.03 | 0.28 | 0.03 | 93 | 1008.3 |
| 20260505223219 | 12 | 224 | 1.6 | 4.8 | 0.03 | 0.28 | 0.00 | 94 | 1008.1 |
| 20260505223033 | 12 | 209 | 1.6 | 4.8 | 0.03 | 0.28 | 0.03 | 94 | 1008.2 |
| 20260505222228 | 12 | 193 | 1.6 | 4.8 | 0.03 | 0.28 | 0.00 | 93 | 1008.1 |
| 20260505221513 | 12 | 200 | 0.0 | 3.2 | 0.03 | 0.28 | 0.03 | 93 | 1008.2 |
| 20260505221218 | 12 | 198 | 1.6 | 6.4 | 0.03 | 0.28 | 0.00 | 93 | 1008.1 |
| 20260505220218 | 12 | 222 | 1.6 | 6.4 | 0.03 | 0.28 | 0.28 | 93 | 1008.0 |
| 20260505220138 | 12 | 196 | 0.0 | 4.8 | 0.03 | 0.28 | 0.03 | 93 | 1008.2 |
| 20260505215223 | 12 | 207 | 0.0 | 3.2 | 0.00 | 0.25 | 0.25 | 93 | 1008.0 |
| 20260505214619 | 12 | 244 | 0.0 | 1.6 | 0.00 | 0.25 | 0.25 | 93 | 1008.2 |
| 20260505214224 | 12 | 192 | 0.0 | 3.2 | 0.00 | 0.25 | 0.25 | 93 | 1008.1 |
| 20260505213210 | 12 | 213 | 1.6 | 3.2 | 0.00 | 0.25 | 0.25 | 93 | 1008.1 |
| 20260505213100 | 12 | 218 | 0.0 | 3.2 | 0.00 | 0.25 | 0.25 | 93 | 1008.2 |
| 20260505212219 | 12 | 230 | 0.0 | 3.2 | 0.00 | 0.25 | 0.25 | 93 | 1008.1 |
| 20260505211527 | 12 | 182 | 0.0 | 1.6 | 0.00 | 0.25 | 0.25 | 93 | 1008.2 |
| 20260505211218 | 12 | 232 | 0.0 | 3.2 | 0.00 | 0.25 | 0.25 | 93 | 1008.1 |
| 20260505210221 | 13 | 232 | 1.6 | 6.4 | 0.00 | 0.25 | 0.25 | 93 | 1008.1 |
| 20260505210057 | 12 | 232 | 0.0 | 4.8 | 0.00 | 0.25 | 0.25 | 93 | 1008.3 |
| 20260505205219 | 13 | 242 | 1.6 | 6.4 | 0.00 | 0.25 | 0.25 | 93 | 1008.1 |
| 20260505204503 | 13 | 222 | 0.0 | 4.8 | 0.00 | 0.25 | 0.25 | 93 | 1008.3 |
| 20260505204234 | 13 | 138 | 1.6 | 8.0 | 0.00 | 0.25 | 0.25 | 93 | 1008.2 |
| 20260505203217 | 13 | 243 | 3.2 | 8.0 | 0.00 | 0.25 | 0.25 | 93 | 1008.2 |
| 20260505203017 | 13 | 214 | 1.6 | 9.7 | 0.00 | 0.25 | 0.25 | 93 | 1008.3 |
| 20260505202224 | 13 | 189 | 3.2 | 6.4 | 0.00 | 0.25 | 0.25 | 92 | 1008.2 |
| 20260505201528 | 13 | 119 | 1.6 | 6.4 | 0.00 | 0.25 | 0.25 | 92 | 1008.2 |
| 20260505201209 | 13 | 174 | 1.6 | 3.2 | 0.03 | 0.25 | 0.25 | 92 | 1008.1 |
| 20260505200224 | 13 | 200 | 1.6 | 4.8 | 0.05 | 0.25 | 0.25 | 92 | 1008.0 |
| 20260505200107 | 13 | 165 | 1.6 | 4.8 | 0.05 | 0.25 | 0.25 | 92 | 1008.1 |
| 20260505195227 | 13 | 200 | 1.6 | 4.8 | 0.05 | 0.25 | 0.25 | 92 | 1007.9 |
| 20260505194550 | 13 | 192 | 1.6 | 6.4 | 0.05 | 0.25 | 0.25 | 92 | 1007.9 |
| 20260505194211 | 13 | 163 | 1.6 | 4.8 | 0.08 | 0.25 | 0.25 | 91 | 1007.9 |
| 20260505193232 | 13 | 166 | 1.6 | 4.8 | 0.13 | 0.25 | 0.25 | 91 | 1007.8 |
| 20260505193054 | 13 | 155 | 0.0 | 4.8 | 0.10 | 0.25 | 0.25 | 91 | 1007.8 |
| 20260505192223 | 14 | 184 | 1.6 | 4.8 | 0.15 | 0.25 | 0.25 | 91 | 1007.6 |
| 20260505191517 | 13 | 194 | 0.0 | 3.2 | 0.20 | 0.25 | 0.25 | 91 | 1007.7 |
| 20260505191223 | 14 | 148 | 1.6 | 3.2 | 0.15 | 0.23 | 0.23 | 91 | 1007.6 |
| 20260505190220 | 14 | 186 | 1.6 | 4.8 | 0.13 | 0.23 | 0.23 | 90 | 1007.6 |
| 20260505185217 | 15 | 198 | 1.6 | 4.8 | 0.13 | 0.23 | 0.23 | 90 | 1007.7 |
| 20260505184523 | 14 | 134 | 0.0 | 3.2 | 0.15 | 0.20 | 0.20 | 89 | 1007.7 |
| 20260505184211 | 15 | 233 | 1.6 | 3.2 | 0.08 | 0.18 | 0.18 | 89 | 1007.6 |
| 20260505182226 | 15 | 188 | 1.6 | 3.2 | 0.05 | 0.05 | 0.05 | 88 | 1007.5 |
| 20260505181540 | 15 | 222 | 0.0 | 3.2 | 0.03 | 0.05 | 0.05 | 87 | 1007.6 |
| 20260505180023 | -17 | 0.0 | 0.0 | 0.00 | 0.05 | 0.05 | 1007.4 | ||
| 20260505174531 | -17 | 0.0 | 0.0 | 0.00 | 0.05 | 0.05 | 1007.5 | ||
| 20260505173227 | 16 | 150 | 0.0 | 1.6 | 0.00 | 0.05 | 0.05 | 80 | 1007.4 |
| 20260505173047 | 16 | 150 | 0.0 | 3.2 | 0.00 | 0.05 | 0.05 | 80 | 1007.4 |
| 20260505172218 | 16 | 109 | 1.6 | 0.0 | 0.00 | 0.05 | 0.05 | 80 | 1007.4 |
| 20260505171536 | -17 | 0.0 | 0.0 | 0.00 | 0.05 | 0.05 | 1007.4 | ||
| 20260505170110 | -17 | 0.0 | 0.0 | 0.00 | 0.05 | 0.05 | 1007.5 | ||
| 20260505164600 | -17 | 0.0 | 0.0 | 0.00 | 0.05 | 0.05 | 1007.5 | ||
| 20260505163045 | -17 | 0.0 | 0.0 | 0.00 | 0.05 | 0.05 | 1007.6 | ||
| 20260505161515 | -17 | 0.0 | 0.0 | 0.00 | 0.05 | 0.05 | 1007.6 | ||
| 20260505160107 | -17 | 0.0 | 0.0 | 0.00 | 0.05 | 0.05 | 1007.6 | ||
| 20260505153008 | -17 | 0.0 | 0.0 | 0.00 | 0.05 | 0.05 | 1007.7 | ||
| 20260505151544 | -17 | 0.0 | 0.0 | 0.00 | 0.05 | 0.05 | 1007.8 | ||
| 20260505150225 | 16 | 0 | 1.6 | 3.2 | 0.00 | 0.05 | 0.05 | 83 | 1007.9 |
| 20260505124606 | -17 | 0.0 | 0.0 | 0.00 | 0.00 | 0.00 | 1008.8 | ||
| 20260505123224 | 17 | 211 | 3.2 | 4.8 | 0.00 | 0.00 | 0.00 | 74 | 1008.9 |
| 20260505123054 | -17 | 0.0 | 0.0 | 0.00 | 0.00 | 0.00 | 1008.9 | ||
| 20260505122220 | 17 | 211 | 3.2 | 8.0 | 0.00 | 0.00 | 0.00 | 74 | 1008.8 |
| 20260505121554 | 16 | 216 | 3.2 | 8.0 | 0.00 | 0.00 | 0.00 | 74 | 1008.8 |
| 20260505120114 | 17 | 236 | 0.0 | 3.2 | 0.00 | 0.00 | 0.00 | 73 | 1008.8 |
| 20260505115219 | 17 | 252 | 1.6 | 4.8 | 0.00 | 0.00 | 0.00 | 74 | 1008.8 |
| 20260505114526 | 17 | 288 | 1.6 | 4.8 | 0.00 | 0.00 | 0.00 | 73 | 1008.9 |
| 20260505114225 | 17 | 248 | 1.6 | 3.2 | 0.00 | 0.00 | 0.00 | 75 | 1008.9 |
| 20260505113211 | 17 | 167 | 1.6 | 1.6 | 0.00 | 0.00 | 0.00 | 74 | 1008.9 |
| 20260505113005 | 17 | 23 | 0.0 | 4.8 | 0.00 | 0.00 | 0.00 | 74 | 1008.9 |
| 20260505111553 | -17 | 0.0 | 0.0 | 0.00 | 0.00 | 0.00 | 1009.0 | ||
| 20260505101524 | 17 | 123 | 1.6 | 4.8 | 0.00 | 0.00 | 0.00 | 80 | 1009.0 |
| 20260505101228 | 17 | 115 | 1.6 | 8.0 | 0.00 | 0.00 | 0.00 | 79 | 1009.0 |
| 20260505100218 | 17 | 171 | 3.2 | 8.0 | 0.00 | 0.00 | 0.00 | 79 | 1009.1 |
| 20260505100055 | 17 | 201 | 1.6 | 6.4 | 0.00 | 0.00 | 0.00 | 78 | 1009.2 |
| 20260505095226 | 17 | 182 | 3.2 | 8.0 | 0.00 | 0.00 | 0.00 | 78 | 1009.3 |
| 20260505094544 | 17 | 161 | 1.6 | 8.0 | 0.00 | 0.00 | 0.00 | 78 | 1009.3 |
| 20260505094220 | 17 | 254 | 1.6 | 6.4 | 0.00 | 0.00 | 0.00 | 78 | 1009.2 |
| 20260505093224 | 17 | 112 | 1.6 | 4.8 | 0.00 | 0.00 | 0.00 | 78 | 1009.3 |
| 20260505093046 | 17 | 225 | 1.6 | 4.8 | 0.00 | 0.00 | 0.00 | 78 | 1009.3 |
| 20260505092215 | 17 | 81 | 3.2 | 0.0 | 0.00 | 0.00 | 0.00 | 79 | 1009.4 |
| 20260505091519 | -17 | 0.0 | 0.0 | 0.00 | 0.00 | 0.00 | 1009.4 | ||
| 20260505091226 | 16 | 225 | 3.2 | 3.2 | 0.00 | 0.00 | 0.00 | 77 | 1009.5 |
| 20260505090218 | 16 | 225 | 3.2 | 4.8 | 0.00 | 0.00 | 0.00 | 77 | 1009.6 |
| 20260505090059 | 16 | 225 | 1.6 | 4.8 | 0.00 | 0.00 | 0.00 | 77 | 1009.6 |
| 20260505085226 | 16 | 93 | 3.2 | 6.4 | 0.00 | 0.00 | 0.00 | 77 | 1009.6 |
| 20260505084550 | 16 | 151 | 1.6 | 4.8 | 0.00 | 0.00 | 0.00 | 77 | 1009.7 |
| 20260505084218 | 16 | 151 | 3.2 | 6.4 | 0.00 | 0.00 | 0.00 | 77 | 1009.8 |
| 20260505083211 | 16 | 101 | 1.6 | 4.8 | 0.00 | 0.00 | 0.00 | 77 | 1009.9 |
| 20260505083103 | 16 | 144 | 1.6 | 6.4 | 0.00 | 0.00 | 0.00 | 77 | 1009.9 |
| 20260505082215 | 16 | 214 | 1.6 | 1.6 | 0.00 | 0.00 | 0.00 | 78 | 1009.9 |
| 20260505081523 | -17 | 0.0 | 0.0 | 0.00 | 0.00 | 0.00 | 1009.8 | ||
| 20260505081228 | 16 | 214 | 1.6 | 6.4 | 0.00 | 0.00 | 0.00 | 78 | 1009.9 |
| 20260505080055 | 16 | 166 | 0.0 | 6.4 | 0.00 | 0.00 | 0.00 | 78 | 1009.9 |
| 20260505075226 | 16 | 155 | 1.6 | 3.2 | 0.00 | 0.00 | 0.00 | 78 | 1009.9 |
| 20260505074510 | 15 | 92 | 0.0 | 4.8 | 0.00 | 0.00 | 0.00 | 80 | 1009.9 |
| 20260505074211 | 15 | 138 | 1.6 | 6.4 | 0.00 | 0.00 | 0.00 | 79 | 1010.0 |
| 20260505073220 | 15 | 218 | 1.6 | 6.4 | 0.00 | 0.00 | 0.00 | 79 | 1010.1 |
| 20260505073110 | 15 | 222 | 1.6 | 4.8 | 0.00 | 0.00 | 0.00 | 79 | 1010.0 |
| 20260505072217 | 15 | 57 | 1.6 | 1.6 | 0.00 | 0.00 | 0.00 | 79 | 1010.1 |
| 20260505071559 | 15 | 348 | 0.0 | 1.6 | 0.00 | 0.00 | 0.00 | 80 | 1010.1 |
| 20260505071212 | 15 | 244 | 0.0 | 1.6 | 0.00 | 0.00 | 0.00 | 80 | 1010.1 |
| 20260505070053 | 14 | 244 | 0.0 | 1.6 | 0.00 | 0.00 | 0.00 | 80 | 1010.1 |
| 20260505065212 | 14 | 215 | 0.0 | 1.6 | 0.00 | 0.00 | 0.00 | 81 | 1010.2 |
| 20260505064606 | 13 | 215 | 0.0 | 1.6 | 0.00 | 0.00 | 0.00 | 82 | 1010.1 |
| 20260505063227 | 13 | 229 | 0.0 | 1.6 | 0.00 | 0.00 | 0.00 | 82 | 1010.2 |
| 20260505063039 | 13 | 229 | 0.0 | 1.6 | 0.00 | 0.00 | 0.00 | 82 | 1010.1 |
| 20260505062213 | 13 | 233 | 1.6 | 3.2 | 0.00 | 0.00 | 0.00 | 82 | 1010.1 |
| 20260505061542 | 13 | 219 | 0.0 | 3.2 | 0.00 | 0.00 | 0.00 | 82 | 1010.1 |
| 20260505061218 | 13 | 182 | 0.0 | 1.6 | 0.00 | 0.00 | 0.00 | 82 | 1010.2 |
| 20260505060225 | 13 | 244 | 0.0 | 1.6 | 0.00 | 0.00 | 0.00 | 82 | 1010.2 |
| 20260505060055 | 13 | 244 | 0.0 | 3.2 | 0.00 | 0.00 | 0.00 | 82 | 1010.2 |
| 20260505054517 | -17 | 0.0 | 0.0 | 0.00 | 0.00 | 0.00 | 1010.3 | ||
| 20260505054225 | 13 | 240 | 1.6 | 3.2 | 0.00 | 0.00 | 0.00 | 84 | 1010.3 |
| 20260505053230 | 13 | 240 | 1.6 | 3.2 | 0.00 | 0.00 | 0.00 | 84 | 1010.3 |
| 20260505053047 | 12 | 240 | 1.6 | 4.8 | 0.00 | 0.00 | 0.00 | 84 | 1010.3 |
| 20260505052214 | 12 | 208 | 1.6 | 4.8 | 0.00 | 0.00 | 0.00 | 84 | 1010.3 |
| 20260505051555 | 12 | 217 | 1.6 | 6.4 | 0.00 | 0.00 | 0.00 | 84 | 1010.3 |
| 20260505051245 | 12 | 204 | 3.2 | 4.8 | 0.00 | 0.00 | 0.00 | 84 | 1010.3 |
| 20260505050227 | 12 | 238 | 1.6 | 4.8 | 0.00 | 0.00 | 0.00 | 84 | 1010.2 |
| 20260505041552 | 12 | 203 | 3.2 | 4.8 | 0.00 | 0.00 | 0.00 | 84 | 1010.1 |
| 20260505041218 | 12 | 226 | 1.6 | 3.2 | 0.00 | 0.00 | 0.00 | 84 | 1010.2 |
| 20260505040056 | 12 | 269 | 1.6 | 4.8 | 0.00 | 0.00 | 0.00 | 84 | 1010.1 |
| 20260505035227 | 12 | 27 | 1.6 | 6.4 | 0.00 | 0.00 | 0.00 | 84 | 1010.1 |
| 20260505034519 | 12 | 223 | 1.6 | 6.4 | 0.00 | 0.00 | 0.00 | 84 | 1010.0 |
| 20260505034222 | 12 | 257 | 3.2 | 6.4 | 0.00 | 0.00 | 0.00 | 84 | 1010.1 |
| 20260505033224 | 12 | 215 | 3.2 | 6.4 | 0.00 | 0.00 | 0.00 | 85 | 1010.1 |
| 20260505033055 | 12 | 230 | 1.6 | 6.4 | 0.00 | 0.00 | 0.00 | 85 | 1010.2 |
| 20260505032234 | 12 | 238 | 1.6 | 3.2 | 0.00 | 0.00 | 0.00 | 85 | 1010.2 |
| 20260505031608 | 12 | 244 | 0.0 | 3.2 | 0.00 | 0.00 | 0.00 | 85 | 1010.3 |
| 20260505030227 | 12 | 231 | 1.6 | 3.2 | 0.00 | 0.00 | 0.00 | 84 | 1010.5 |
| 20260505030042 | 12 | 231 | 0.0 | 3.2 | 0.00 | 0.00 | 0.00 | 84 | 1010.5 |
| 20260505025219 | 12 | 231 | 0.0 | 1.6 | 0.00 | 0.00 | 0.00 | 84 | 1010.6 |
| 20260505024525 | 12 | 231 | 0.0 | 1.6 | 0.00 | 0.00 | 0.00 | 83 | 1010.6 |
| 20260505024220 | 12 | 231 | 0.0 | 1.6 | 0.00 | 0.00 | 0.00 | 83 | 1010.7 |
| 20260505023211 | 12 | 231 | 0.0 | 1.6 | 0.00 | 0.00 | 0.00 | 83 | 1010.8 |
| 20260505023054 | 12 | 231 | 0.0 | 1.6 | 0.00 | 0.00 | 0.00 | 83 | 1010.8 |
| 20260505022208 | 13 | 231 | 1.6 | 3.2 | 0.00 | 0.00 | 0.00 | 83 | 1011.0 |
| 20260505021511 | 12 | 241 | 0.0 | 3.2 | 0.00 | 0.00 | 0.00 | 83 | 1011.1 |
| 20260505021225 | 13 | 223 | 0.0 | 1.6 | 0.00 | 0.00 | 0.00 | 83 | 1011.1 |
| 20260505020219 | 13 | 223 | 0.0 | 1.6 | 0.00 | 0.00 | 0.00 | 83 | 1011.3 |
| 20260505020008 | 12 | 223 | 0.0 | 1.6 | 0.00 | 0.00 | 0.00 | 83 | 1011.3 |
| 20260505015224 | 13 | 223 | 0.0 | 1.6 | 0.00 | 0.00 | 0.00 | 82 | 1011.2 |
| 20260505014558 | 12 | 223 | 0.0 | 1.6 | 0.00 | 0.00 | 0.00 | 82 | 1011.3 |
| 20260505014223 | 13 | 223 | 1.6 | 3.2 | 0.00 | 0.00 | 0.00 | 82 | 1011.3 |
| 20260505013221 | 13 | 223 | 1.6 | 3.2 | 0.00 | 0.00 | 0.00 | 82 | 1011.4 |
| 20260505013016 | 13 | 215 | 1.6 | 3.2 | 0.00 | 0.00 | 0.00 | 82 | 1011.4 |
| 20260505012219 | 13 | 287 | 0.0 | 3.2 | 0.00 | 0.00 | 0.00 | 81 | 1011.5 |
| 20260505011603 | 13 | 313 | 0.0 | 3.2 | 0.00 | 0.00 | 0.00 | 81 | 1011.6 |
| 20260505010214 | 13 | 10 | 0.0 | 0.0 | 0.00 | 0.00 | 0.00 | 81 | 1011.8 |
| 20260505010023 | 13 | 10 | 0.0 | 0.0 | 0.00 | 0.00 | 0.00 | 81 | 1011.8 |
| 20260505005222 | 13 | 10 | 0.0 | 1.6 | 0.00 | 0.00 | 0.00 | 82 | 1011.9 |
| 20260505004510 | 13 | 11 | 0.0 | 1.6 | 0.00 | 0.00 | 0.00 | 82 | 1012.1 |
| 20260505004217 | 13 | 11 | 0.0 | 1.6 | 0.00 | 0.00 | 0.00 | 82 | 1012.1 |
| 20260505003221 | 13 | 11 | 0.0 | 1.6 | 0.00 | 0.00 | 0.00 | 81 | 1012.1 |
| 20260505003110 | 13 | 11 | 0.0 | 1.6 | 0.00 | 0.00 | 0.00 | 81 | 1012.2 |
| 20260505002215 | 13 | 11 | 0.0 | 1.6 | 0.00 | 0.00 | 0.00 | 81 | 1012.2 |
| 20260505001600 | 13 | 13 | 0.0 | 1.6 | 0.00 | 0.00 | 0.00 | 81 | 1012.2 |
| 20260505001207 | 13 | 12 | 0.0 | 1.6 | 0.00 | 0.00 | 0.00 | 81 | 1012.1 |
| 20260505000218 | 13 | 10 | 0.0 | 1.6 | 0.00 | 0.00 | 0.00 | 80 | 1012.1 |
| 20260505000020 | 13 | 10 | 0.0 | 1.6 | 0.00 | 0.00 | 0.00 | 80 | 1012.2 |